Year,Month,Day,Hour,Minute,Value (Times are PST for temperature in C)
2010,07,07,00,00,17.10
2010,07,07,00,01,17.20
2010,07,07,00,02,17.20
2010,07,07,00,03,17.20
2010,07,07,00,04,17.20
2010,07,07,00,05,17.30
2010,07,07,00,06,17.30
2010,07,07,00,07,17.30
2010,07,07,00,08,17.30
2010,07,07,00,09,17.30
2010,07,07,00,10,17.30
2010,07,07,00,11,17.30
2010,07,07,00,12,17.30
2010,07,07,00,13,17.30
2010,07,07,00,14,17.30
2010,07,07,00,15,17.30
2010,07,07,00,16,17.20
2010,07,07,00,17,17.20
2010,07,07,00,18,17.20
2010,07,07,00,19,17.20
2010,07,07,00,20,17.10
2010,07,07,00,21,17.10
2010,07,07,00,22,17.10
2010,07,07,00,23,17.00
2010,07,07,00,24,17.00
2010,07,07,00,25,17.00
2010,07,07,00,26,17.00
2010,07,07,00,27,17.00
2010,07,07,00,28,17.00
2010,07,07,00,29,17.00
2010,07,07,00,30,17.00
2010,07,07,00,31,17.00
2010,07,07,00,32,17.00
2010,07,07,00,33,16.90
2010,07,07,00,34,16.90
2010,07,07,00,35,16.90
2010,07,07,00,36,16.90
2010,07,07,00,37,16.90
2010,07,07,00,38,16.90
2010,07,07,00,39,16.90
2010,07,07,00,40,16.80
2010,07,07,00,41,16.80
2010,07,07,00,42,16.80
2010,07,07,00,43,16.70
2010,07,07,00,44,16.70
2010,07,07,00,45,16.70
2010,07,07,00,46,16.70
2010,07,07,00,47,16.70
2010,07,07,00,48,16.70
2010,07,07,00,49,16.70
2010,07,07,00,50,16.70
2010,07,07,00,51,16.70
2010,07,07,00,52,16.70
2010,07,07,00,53,16.70
2010,07,07,00,54,16.70
2010,07,07,00,55,16.70
2010,07,07,00,56,16.70
2010,07,07,00,57,16.70
2010,07,07,00,58,16.70
2010,07,07,00,59,16.70
2010,07,07,01,00,16.60
2010,07,07,01,01,16.60
2010,07,07,01,02,16.60
2010,07,07,01,03,16.50
2010,07,07,01,04,16.40
2010,07,07,01,05,16.40
2010,07,07,01,06,16.40
2010,07,07,01,07,16.40
2010,07,07,01,08,16.40
2010,07,07,01,09,16.30
2010,07,07,01,10,16.30
2010,07,07,01,11,16.20
2010,07,07,01,12,16.20
2010,07,07,01,13,16.20
2010,07,07,01,14,16.10
2010,07,07,01,15,16.10
2010,07,07,01,16,16.10
2010,07,07,01,17,16.10
2010,07,07,01,18,16.10
2010,07,07,01,19,16.00
2010,07,07,01,20,15.90
2010,07,07,01,21,15.90
2010,07,07,01,22,15.90
2010,07,07,01,23,15.90
2010,07,07,01,24,15.90
2010,07,07,01,25,15.80
2010,07,07,01,26,15.80
2010,07,07,01,27,15.80
2010,07,07,01,28,15.80
2010,07,07,01,29,15.80
2010,07,07,01,30,15.80
2010,07,07,01,31,15.80
2010,07,07,01,32,15.80
2010,07,07,01,33,15.70
2010,07,07,01,34,15.70
2010,07,07,01,35,15.70
2010,07,07,01,36,15.70
2010,07,07,01,37,15.70
2010,07,07,01,38,15.70
2010,07,07,01,39,15.80
2010,07,07,01,40,15.80
2010,07,07,01,41,15.80
2010,07,07,01,42,15.80
2010,07,07,01,43,15.80
2010,07,07,01,44,15.80
2010,07,07,01,45,15.80
2010,07,07,01,46,15.80
2010,07,07,01,47,15.80
2010,07,07,01,48,15.80
2010,07,07,01,49,15.80
2010,07,07,01,50,15.80
2010,07,07,01,51,15.80
2010,07,07,01,52,15.80
2010,07,07,01,53,15.80
2010,07,07,01,54,15.80
2010,07,07,01,55,15.80
2010,07,07,01,56,15.90
2010,07,07,01,57,15.90
2010,07,07,01,58,16.10
2010,07,07,01,59,16.10
2010,07,07,02,00,16.10
2010,07,07,02,01,16.10
2010,07,07,02,02,16.10
2010,07,07,02,03,16.10
2010,07,07,02,04,16.10
2010,07,07,02,05,16.10
2010,07,07,02,06,16.10
2010,07,07,02,07,16.10
2010,07,07,02,08,16.10
2010,07,07,02,09,16.10
2010,07,07,02,10,16.10
2010,07,07,02,11,16.10
2010,07,07,02,12,16.10
2010,07,07,02,13,16.10
2010,07,07,02,14,16.10
2010,07,07,02,15,15.90
2010,07,07,02,16,15.90
2010,07,07,02,17,15.90
2010,07,07,02,18,15.90
2010,07,07,02,19,15.90
2010,07,07,02,20,15.80
2010,07,07,02,21,15.80
2010,07,07,02,22,15.80
2010,07,07,02,23,15.80
2010,07,07,02,24,15.80
2010,07,07,02,25,15.80
2010,07,07,02,26,15.80
2010,07,07,02,27,15.80
2010,07,07,02,28,15.80
2010,07,07,02,29,15.80
2010,07,07,02,30,15.70
2010,07,07,02,31,15.70
2010,07,07,02,32,15.70
2010,07,07,02,33,15.70
2010,07,07,02,34,15.60
2010,07,07,02,35,15.60
2010,07,07,02,36,15.60
2010,07,07,02,37,15.50
2010,07,07,02,38,15.50
2010,07,07,02,39,15.50
2010,07,07,02,40,15.50
2010,07,07,02,41,15.40
2010,07,07,02,42,15.40
2010,07,07,02,43,15.30
2010,07,07,02,44,15.30
2010,07,07,02,45,15.30
2010,07,07,02,46,15.30
2010,07,07,02,47,15.20
2010,07,07,02,48,15.20
2010,07,07,02,49,15.20
2010,07,07,02,50,15.10
2010,07,07,02,51,15.10
2010,07,07,02,52,15.10
2010,07,07,02,53,15.00
2010,07,07,02,54,15.00
2010,07,07,02,55,14.90
2010,07,07,02,56,14.90
2010,07,07,02,57,14.90
2010,07,07,02,58,14.80
2010,07,07,02,59,14.80
2010,07,07,03,00,14.80
2010,07,07,03,01,14.80
2010,07,07,03,02,14.80
2010,07,07,03,03,14.80
2010,07,07,03,04,14.80
2010,07,07,03,05,14.80
2010,07,07,03,06,14.70
2010,07,07,03,07,14.70
2010,07,07,03,08,14.70
2010,07,07,03,09,14.70
2010,07,07,03,10,14.70
2010,07,07,03,11,14.70
2010,07,07,03,12,14.70
2010,07,07,03,13,14.60
2010,07,07,03,14,14.60
2010,07,07,03,15,14.60
2010,07,07,03,16,14.60
2010,07,07,03,17,14.60
2010,07,07,03,18,14.60
2010,07,07,03,19,14.60
2010,07,07,03,20,14.60
2010,07,07,03,21,14.60
2010,07,07,03,22,14.50
2010,07,07,03,23,14.50
2010,07,07,03,24,14.50
2010,07,07,03,25,14.50
2010,07,07,03,26,14.50
2010,07,07,03,27,14.50
2010,07,07,03,28,14.50
2010,07,07,03,29,14.50
2010,07,07,03,30,14.40
2010,07,07,03,31,14.40
2010,07,07,03,32,14.40
2010,07,07,03,33,14.40
2010,07,07,03,34,14.40
2010,07,07,03,35,14.40
2010,07,07,03,36,14.40
2010,07,07,03,37,14.40
2010,07,07,03,38,14.40
2010,07,07,03,39,14.40
2010,07,07,03,40,14.40
2010,07,07,03,41,14.50
2010,07,07,03,42,14.50
2010,07,07,03,43,14.60
2010,07,07,03,44,14.60
2010,07,07,03,45,14.60
2010,07,07,03,46,14.70
2010,07,07,03,47,14.70
2010,07,07,03,48,14.80
2010,07,07,03,49,14.80
2010,07,07,03,50,14.90
2010,07,07,03,51,15.00
2010,07,07,03,52,15.00
2010,07,07,03,53,15.10
2010,07,07,03,54,15.10
2010,07,07,03,55,15.20
2010,07,07,03,56,15.20
2010,07,07,03,57,15.30
2010,07,07,03,58,15.30
2010,07,07,03,59,15.40
2010,07,07,04,00,15.50
2010,07,07,04,01,15.70
2010,07,07,04,02,15.90
2010,07,07,04,03,16.10
2010,07,07,04,04,16.20
2010,07,07,04,05,16.30
2010,07,07,04,06,16.50
2010,07,07,04,07,16.60
2010,07,07,04,08,16.70
2010,07,07,04,09,16.70
2010,07,07,04,10,16.80
2010,07,07,04,11,16.80
2010,07,07,04,12,16.90
2010,07,07,04,13,16.90
2010,07,07,04,14,16.80
2010,07,07,04,15,16.80
2010,07,07,04,16,16.70
2010,07,07,04,17,16.60
2010,07,07,04,18,16.40
2010,07,07,04,19,16.40
2010,07,07,04,20,16.30
2010,07,07,04,21,16.20
2010,07,07,04,22,16.10
2010,07,07,04,23,16.10
2010,07,07,04,24,16.10
2010,07,07,04,25,16.10
2010,07,07,04,26,16.10
2010,07,07,04,27,16.20
2010,07,07,04,28,16.30
2010,07,07,04,29,16.30
2010,07,07,04,30,16.40
2010,07,07,04,31,16.40
2010,07,07,04,32,16.50
2010,07,07,04,33,16.60
2010,07,07,04,34,16.70
2010,07,07,04,35,16.80
2010,07,07,04,36,16.90
2010,07,07,04,37,17.00
2010,07,07,04,38,17.10
2010,07,07,04,39,17.30
2010,07,07,04,40,17.30
2010,07,07,04,41,17.50
2010,07,07,04,42,17.50
2010,07,07,04,43,17.70
2010,07,07,04,44,17.70
2010,07,07,04,45,17.80
2010,07,07,04,46,17.90
2010,07,07,04,47,17.90
2010,07,07,04,48,17.90
2010,07,07,04,49,17.90
2010,07,07,04,50,17.90
2010,07,07,04,51,17.90
2010,07,07,04,52,17.90
2010,07,07,04,53,17.90
2010,07,07,04,54,17.90
2010,07,07,04,55,17.90
2010,07,07,04,56,17.90
2010,07,07,04,57,17.90
2010,07,07,04,58,17.90
2010,07,07,04,59,17.90
2010,07,07,05,00,17.80
2010,07,07,05,01,17.80
2010,07,07,05,02,17.80
2010,07,07,05,03,17.90
2010,07,07,05,04,17.80
2010,07,07,05,05,17.80
2010,07,07,05,06,17.90
2010,07,07,05,07,17.80
2010,07,07,05,08,17.80
2010,07,07,05,09,17.80
2010,07,07,05,10,17.80
2010,07,07,05,11,17.80
2010,07,07,05,12,17.80
2010,07,07,05,13,17.70
2010,07,07,05,14,17.70
2010,07,07,05,15,17.70
2010,07,07,05,16,17.70
2010,07,07,05,17,17.70
2010,07,07,05,18,17.60
2010,07,07,05,19,17.60
2010,07,07,05,20,17.60
2010,07,07,05,21,17.50
2010,07,07,05,22,17.50
2010,07,07,05,23,17.50
2010,07,07,05,24,17.40
2010,07,07,05,25,17.40
2010,07,07,05,26,17.40
2010,07,07,05,27,17.40
2010,07,07,05,28,17.30
2010,07,07,05,29,17.30
2010,07,07,05,30,17.30
2010,07,07,05,31,17.30
2010,07,07,05,32,17.20
2010,07,07,05,33,17.30
2010,07,07,05,34,17.30
2010,07,07,05,35,17.40
2010,07,07,05,36,17.50
2010,07,07,05,37,17.70
2010,07,07,05,38,17.80
2010,07,07,05,39,18.00
2010,07,07,05,40,18.10
2010,07,07,05,41,18.20
2010,07,07,05,42,18.30
2010,07,07,05,43,18.40
2010,07,07,05,44,18.50
2010,07,07,05,45,18.50
2010,07,07,05,46,18.50
2010,07,07,05,47,18.50
2010,07,07,05,48,18.60
2010,07,07,05,49,18.60
2010,07,07,05,50,18.60
2010,07,07,05,51,18.50
2010,07,07,05,52,18.50
2010,07,07,05,53,18.40
2010,07,07,05,54,18.30
2010,07,07,05,55,18.30
2010,07,07,05,56,18.20
2010,07,07,05,57,18.20
2010,07,07,05,58,18.20
2010,07,07,05,59,18.20
2010,07,07,06,00,18.20
2010,07,07,06,01,18.20
2010,07,07,06,02,18.20
2010,07,07,06,03,18.20
2010,07,07,06,04,18.20
2010,07,07,06,05,18.20
2010,07,07,06,06,18.20
2010,07,07,06,07,18.20
2010,07,07,06,08,18.30
2010,07,07,06,09,18.30
2010,07,07,06,10,18.30
2010,07,07,06,11,18.40
2010,07,07,06,12,18.40
2010,07,07,06,13,18.40
2010,07,07,06,14,18.50
2010,07,07,06,15,18.50
2010,07,07,06,16,18.50
2010,07,07,06,17,18.50
2010,07,07,06,18,18.50
2010,07,07,06,19,18.50
2010,07,07,06,20,18.50
2010,07,07,06,21,18.50
2010,07,07,06,22,18.50
2010,07,07,06,23,18.50
2010,07,07,06,24,18.50
2010,07,07,06,25,18.50
2010,07,07,06,26,18.60
2010,07,07,06,27,18.60
2010,07,07,06,28,18.60
2010,07,07,06,29,18.60
2010,07,07,06,30,18.60
2010,07,07,06,31,18.60
2010,07,07,06,32,18.60
2010,07,07,06,33,18.60
2010,07,07,06,34,18.70
2010,07,07,06,35,18.70
2010,07,07,06,36,18.70
2010,07,07,06,37,18.70
2010,07,07,06,38,18.70
2010,07,07,06,39,18.70
2010,07,07,06,40,18.70
2010,07,07,06,41,18.80
2010,07,07,06,42,18.80
2010,07,07,06,43,18.80
2010,07,07,06,44,18.80
2010,07,07,06,45,18.80
2010,07,07,06,46,18.80
2010,07,07,06,47,18.80
2010,07,07,06,48,18.90
2010,07,07,06,49,18.90
2010,07,07,06,50,18.90
2010,07,07,06,51,18.90
2010,07,07,06,52,18.90
2010,07,07,06,53,18.90
2010,07,07,06,54,18.90
2010,07,07,06,55,18.90
2010,07,07,06,56,18.90
2010,07,07,06,57,18.90
2010,07,07,06,58,18.90
2010,07,07,06,59,18.90
2010,07,07,07,00,18.90
2010,07,07,07,01,19.00
2010,07,07,07,02,19.10
2010,07,07,07,03,19.10
2010,07,07,07,04,19.10
2010,07,07,07,05,19.10
2010,07,07,07,06,19.10
2010,07,07,07,07,19.10
2010,07,07,07,08,19.10
2010,07,07,07,09,19.10
2010,07,07,07,10,19.10
2010,07,07,07,11,19.10
2010,07,07,07,12,19.10
2010,07,07,07,13,19.20
2010,07,07,07,14,19.20
2010,07,07,07,15,19.20
2010,07,07,07,16,19.20
2010,07,07,07,17,19.30
2010,07,07,07,18,19.30
2010,07,07,07,19,19.40
2010,07,07,07,20,19.50
2010,07,07,07,21,19.50
2010,07,07,07,22,19.60
2010,07,07,07,23,19.60
2010,07,07,07,24,19.60
2010,07,07,07,25,19.60
2010,07,07,07,26,19.70
2010,07,07,07,27,19.70
2010,07,07,07,28,19.80
2010,07,07,07,29,19.80
2010,07,07,07,30,19.80
2010,07,07,07,31,19.80
2010,07,07,07,32,19.90
2010,07,07,07,33,19.90
2010,07,07,07,34,20.00
2010,07,07,07,35,20.10
2010,07,07,07,36,20.10
2010,07,07,07,37,20.10
2010,07,07,07,38,20.10
2010,07,07,07,39,20.10
2010,07,07,07,40,20.10
2010,07,07,07,41,20.10
2010,07,07,07,42,20.10
2010,07,07,07,43,20.20
2010,07,07,07,44,20.20
2010,07,07,07,45,20.20
2010,07,07,07,46,20.20
2010,07,07,07,47,20.10
2010,07,07,07,48,20.10
2010,07,07,07,49,20.20
2010,07,07,07,50,20.20
2010,07,07,07,51,20.20
2010,07,07,07,52,20.20
2010,07,07,07,53,20.20
2010,07,07,07,54,20.20
2010,07,07,07,55,20.10
2010,07,07,07,56,20.10
2010,07,07,07,57,20.10
2010,07,07,07,58,20.20
2010,07,07,07,59,20.20
2010,07,07,08,00,20.20
2010,07,07,08,01,20.20
2010,07,07,08,02,20.20
2010,07,07,08,03,20.20
2010,07,07,08,04,20.20
2010,07,07,08,05,20.30
2010,07,07,08,06,20.30
2010,07,07,08,07,20.30
2010,07,07,08,08,20.30
2010,07,07,08,09,20.30
2010,07,07,08,10,20.30
2010,07,07,08,11,20.30
2010,07,07,08,12,20.30
2010,07,07,08,13,20.30
2010,07,07,08,14,20.30
2010,07,07,08,15,20.30
2010,07,07,08,16,20.30
2010,07,07,08,17,20.40
2010,07,07,08,18,20.40
2010,07,07,08,19,20.50
2010,07,07,08,20,20.50
2010,07,07,08,21,20.60
2010,07,07,08,22,20.70
2010,07,07,08,23,20.70
2010,07,07,08,24,20.70
2010,07,07,08,25,20.70
2010,07,07,08,26,20.70
2010,07,07,08,27,20.60
2010,07,07,08,28,20.60
2010,07,07,08,29,20.60
2010,07,07,08,30,20.70
2010,07,07,08,31,20.70
2010,07,07,08,32,20.80
2010,07,07,08,33,20.80
2010,07,07,08,34,20.80
2010,07,07,08,35,20.70
2010,07,07,08,36,20.70
2010,07,07,08,37,20.80
2010,07,07,08,38,20.80
2010,07,07,08,39,20.90
2010,07,07,08,40,20.90
2010,07,07,08,41,20.90
2010,07,07,08,42,21.00
2010,07,07,08,43,21.00
2010,07,07,08,44,21.00
2010,07,07,08,45,21.00
2010,07,07,08,46,21.00
2010,07,07,08,47,21.00
2010,07,07,08,48,21.10
2010,07,07,08,49,21.10
2010,07,07,08,50,21.20
2010,07,07,08,51,21.10
2010,07,07,08,52,21.10
2010,07,07,08,53,21.10
2010,07,07,08,54,21.10
2010,07,07,08,55,21.10
2010,07,07,08,56,21.10
2010,07,07,08,57,21.10
2010,07,07,08,58,21.10
2010,07,07,08,59,21.10
2010,07,07,09,00,21.10
2010,07,07,09,01,21.20
2010,07,07,09,02,21.20
2010,07,07,09,03,21.20
2010,07,07,09,04,21.20
2010,07,07,09,05,21.20
2010,07,07,09,06,21.20
2010,07,07,09,07,21.20
2010,07,07,09,08,21.20
2010,07,07,09,09,21.20
2010,07,07,09,10,21.30
2010,07,07,09,11,21.30
2010,07,07,09,12,21.30
2010,07,07,09,13,21.30
2010,07,07,09,14,21.30
2010,07,07,09,15,21.40
2010,07,07,09,16,21.50
2010,07,07,09,17,21.60
2010,07,07,09,18,21.60
2010,07,07,09,19,21.60
2010,07,07,09,20,21.70
2010,07,07,09,21,21.70
2010,07,07,09,22,21.70
2010,07,07,09,23,21.70
2010,07,07,09,24,21.70
2010,07,07,09,25,21.80
2010,07,07,09,26,21.80
2010,07,07,09,27,21.80
2010,07,07,09,28,21.70
2010,07,07,09,29,21.80
2010,07,07,09,30,21.80
2010,07,07,09,31,21.80
2010,07,07,09,32,21.80
2010,07,07,09,33,21.80
2010,07,07,09,34,21.80
2010,07,07,09,35,21.90
2010,07,07,09,36,21.90
2010,07,07,09,37,22.00
2010,07,07,09,38,22.00
2010,07,07,09,39,22.00
2010,07,07,09,40,22.00
2010,07,07,09,41,22.10
2010,07,07,09,42,22.10
2010,07,07,09,43,22.10
2010,07,07,09,44,22.10
2010,07,07,09,45,22.20
2010,07,07,09,46,22.20
2010,07,07,09,47,22.20
2010,07,07,09,48,22.20
2010,07,07,09,49,22.20
2010,07,07,09,50,22.20
2010,07,07,09,51,22.30
2010,07,07,09,52,22.30
2010,07,07,09,53,22.40
2010,07,07,09,54,22.40
2010,07,07,09,55,22.40
2010,07,07,09,56,22.40
2010,07,07,09,57,22.50
2010,07,07,09,58,22.50
2010,07,07,09,59,22.50
2010,07,07,10,00,22.50
2010,07,07,10,01,22.50
2010,07,07,10,02,22.50
2010,07,07,10,03,22.50
2010,07,07,10,04,22.50
2010,07,07,10,05,22.40
2010,07,07,10,06,22.40
2010,07,07,10,07,22.40
2010,07,07,10,08,22.40
2010,07,07,10,09,22.40
2010,07,07,10,10,22.40
2010,07,07,10,11,22.50
2010,07,07,10,12,22.60
2010,07,07,10,13,22.70
2010,07,07,10,14,22.70
2010,07,07,10,15,22.80
2010,07,07,10,16,22.80
2010,07,07,10,17,22.80
2010,07,07,10,18,22.80
2010,07,07,10,19,22.80
2010,07,07,10,20,22.90
2010,07,07,10,21,22.90
2010,07,07,10,22,22.80
2010,07,07,10,23,22.80
2010,07,07,10,24,22.90
2010,07,07,10,25,22.90
2010,07,07,10,26,22.90
2010,07,07,10,27,22.90
2010,07,07,10,28,22.90
2010,07,07,10,29,22.90
2010,07,07,10,30,22.90
2010,07,07,10,31,22.90
2010,07,07,10,32,22.90
2010,07,07,10,33,22.90
2010,07,07,10,34,23.00
2010,07,07,10,35,23.10
2010,07,07,10,36,23.10
2010,07,07,10,37,23.10
2010,07,07,10,38,23.20
2010,07,07,10,39,23.20
2010,07,07,10,40,23.30
2010,07,07,10,41,23.30
2010,07,07,10,42,23.30
2010,07,07,10,43,23.40
2010,07,07,10,44,23.40
2010,07,07,10,45,23.50
2010,07,07,10,46,23.50
2010,07,07,10,47,23.40
2010,07,07,10,48,23.40
2010,07,07,10,49,23.40
2010,07,07,10,50,23.60
2010,07,07,10,51,23.70
2010,07,07,10,52,23.70
2010,07,07,10,53,23.70
2010,07,07,10,54,23.70
2010,07,07,10,55,23.70
2010,07,07,10,56,23.70
2010,07,07,10,57,23.70
2010,07,07,10,58,23.70
2010,07,07,10,59,23.70
2010,07,07,11,00,23.70
2010,07,07,11,01,23.70
2010,07,07,11,02,23.70
2010,07,07,11,03,23.70
2010,07,07,11,04,23.70
2010,07,07,11,05,23.70
2010,07,07,11,06,23.60
2010,07,07,11,07,23.60
2010,07,07,11,08,23.60
2010,07,07,11,09,23.60
2010,07,07,11,10,23.60
2010,07,07,11,11,23.70
2010,07,07,11,12,23.70
2010,07,07,11,13,23.70
2010,07,07,11,14,23.70
2010,07,07,11,15,23.80
2010,07,07,11,16,23.90
2010,07,07,11,17,24.00
2010,07,07,11,18,24.10
2010,07,07,11,19,24.10
2010,07,07,11,20,24.10
2010,07,07,11,21,24.10
2010,07,07,11,22,24.10
2010,07,07,11,23,24.20
2010,07,07,11,24,24.20
2010,07,07,11,25,24.10
2010,07,07,11,26,24.20
2010,07,07,11,27,24.20
2010,07,07,11,28,24.20
2010,07,07,11,29,24.30
2010,07,07,11,30,24.30
2010,07,07,11,31,24.40
2010,07,07,11,32,24.40
2010,07,07,11,33,24.40
2010,07,07,11,34,24.50
2010,07,07,11,35,24.60
2010,07,07,11,36,24.60
2010,07,07,11,37,24.70
2010,07,07,11,38,24.70
2010,07,07,11,39,24.80
2010,07,07,11,40,24.80
2010,07,07,11,41,24.80
2010,07,07,11,42,24.80
2010,07,07,11,43,24.90
2010,07,07,11,44,24.90
2010,07,07,11,45,24.80
2010,07,07,11,46,24.70
2010,07,07,11,47,24.80
2010,07,07,11,48,24.80
2010,07,07,11,49,24.90
2010,07,07,11,50,24.90
2010,07,07,11,51,24.90
2010,07,07,11,52,25.00
2010,07,07,11,53,25.10
2010,07,07,11,54,25.10
2010,07,07,11,55,25.20
2010,07,07,11,56,25.30
2010,07,07,11,57,25.40
2010,07,07,11,58,25.50
2010,07,07,11,59,25.60
2010,07,07,12,00,25.50
2010,07,07,12,01,25.40
2010,07,07,12,02,25.40
2010,07,07,12,03,25.40
2010,07,07,12,04,25.40
2010,07,07,12,05,25.50
2010,07,07,12,06,25.50
2010,07,07,12,07,25.50
2010,07,07,12,08,25.40
2010,07,07,12,09,25.40
2010,07,07,12,10,25.30
2010,07,07,12,11,25.30
2010,07,07,12,12,25.40
2010,07,07,12,13,25.40
2010,07,07,12,14,25.50
2010,07,07,12,15,25.60
2010,07,07,12,16,25.60
2010,07,07,12,17,25.50
2010,07,07,12,18,25.50
2010,07,07,12,19,25.60
2010,07,07,12,20,25.60
2010,07,07,12,21,25.60
2010,07,07,12,22,25.60
2010,07,07,12,23,25.50
2010,07,07,12,24,25.40
2010,07,07,12,25,25.40
2010,07,07,12,26,25.40
2010,07,07,12,27,25.40
2010,07,07,12,28,25.40
2010,07,07,12,29,25.40
2010,07,07,12,30,25.50
2010,07,07,12,31,25.60
2010,07,07,12,32,25.70
2010,07,07,12,33,25.70
2010,07,07,12,34,25.70
2010,07,07,12,35,25.70
2010,07,07,12,36,25.80
2010,07,07,12,37,25.80
2010,07,07,12,38,25.80
2010,07,07,12,39,25.90
2010,07,07,12,40,25.90
2010,07,07,12,41,25.80
2010,07,07,12,42,25.80
2010,07,07,12,43,25.90
2010,07,07,12,44,25.90
2010,07,07,12,45,25.80
2010,07,07,12,46,25.70
2010,07,07,12,47,25.70
2010,07,07,12,48,25.70
2010,07,07,12,49,25.70
2010,07,07,12,50,25.80
2010,07,07,12,51,25.80
2010,07,07,12,52,25.90
2010,07,07,12,53,25.90
2010,07,07,12,54,25.80
2010,07,07,12,55,25.80
2010,07,07,12,56,25.80
2010,07,07,12,57,25.80
2010,07,07,12,58,25.90
2010,07,07,12,59,25.90
2010,07,07,13,00,25.90
2010,07,07,13,01,25.90
2010,07,07,13,02,25.80
2010,07,07,13,03,25.90
2010,07,07,13,04,25.90
2010,07,07,13,05,26.00
2010,07,07,13,06,26.10
2010,07,07,13,07,26.10
2010,07,07,13,08,26.20
2010,07,07,13,09,26.20
2010,07,07,13,10,26.30
2010,07,07,13,11,26.40
2010,07,07,13,12,26.60
2010,07,07,13,13,26.60
2010,07,07,13,14,26.60
2010,07,07,13,15,26.60
2010,07,07,13,16,26.60
2010,07,07,13,17,26.60
2010,07,07,13,18,26.60
2010,07,07,13,19,26.40
2010,07,07,13,20,26.40
2010,07,07,13,21,26.30
2010,07,07,13,22,26.30
2010,07,07,13,23,26.30
2010,07,07,13,24,26.30
2010,07,07,13,25,26.20
2010,07,07,13,26,26.20
2010,07,07,13,27,26.20
2010,07,07,13,28,26.20
2010,07,07,13,29,26.20
2010,07,07,13,30,26.30
2010,07,07,13,31,26.30
2010,07,07,13,32,26.30
2010,07,07,13,33,26.20
2010,07,07,13,34,26.20
2010,07,07,13,35,26.20
2010,07,07,13,36,26.30
2010,07,07,13,37,26.20
2010,07,07,13,38,26.20
2010,07,07,13,39,26.20
2010,07,07,13,40,26.30
2010,07,07,13,41,26.40
2010,07,07,13,42,26.40
2010,07,07,13,43,26.40
2010,07,07,13,44,26.50
2010,07,07,13,45,26.60
2010,07,07,13,46,26.60
2010,07,07,13,47,26.60
2010,07,07,13,48,26.70
2010,07,07,13,49,26.80
2010,07,07,13,50,26.80
2010,07,07,13,51,26.80
2010,07,07,13,52,26.80
2010,07,07,13,53,26.90
2010,07,07,13,54,26.90
2010,07,07,13,55,26.90
2010,07,07,13,56,27.10
2010,07,07,13,57,27.00
2010,07,07,13,58,26.90
2010,07,07,13,59,26.90
2010,07,07,14,00,26.90
2010,07,07,14,01,27.00
2010,07,07,14,02,27.10
2010,07,07,14,03,27.20
2010,07,07,14,04,27.20
2010,07,07,14,05,27.30
2010,07,07,14,06,27.40
2010,07,07,14,07,27.60
2010,07,07,14,08,27.70
2010,07,07,14,09,27.80
2010,07,07,14,10,27.80
2010,07,07,14,11,27.90
2010,07,07,14,12,28.00
2010,07,07,14,13,28.10
2010,07,07,14,14,28.10
2010,07,07,14,15,28.10
2010,07,07,14,16,27.90
2010,07,07,14,17,27.70
2010,07,07,14,18,27.50
2010,07,07,14,19,27.40
2010,07,07,14,20,27.30
2010,07,07,14,21,27.30
2010,07,07,14,22,27.40
2010,07,07,14,23,27.40
2010,07,07,14,24,27.50
2010,07,07,14,25,27.60
2010,07,07,14,26,27.60
2010,07,07,14,27,27.70
2010,07,07,14,28,27.80
2010,07,07,14,29,27.90
2010,07,07,14,30,28.00
2010,07,07,14,31,27.90
2010,07,07,14,32,27.90
2010,07,07,14,33,28.00
2010,07,07,14,34,27.90
2010,07,07,14,35,27.80
2010,07,07,14,36,27.80
2010,07,07,14,37,27.70
2010,07,07,14,38,27.70
2010,07,07,14,39,27.70
2010,07,07,14,40,27.80
2010,07,07,14,41,27.80
2010,07,07,14,42,27.80
2010,07,07,14,43,28.00
2010,07,07,14,44,28.10
2010,07,07,14,45,28.20
2010,07,07,14,46,28.30
2010,07,07,14,47,28.30
2010,07,07,14,48,28.40
2010,07,07,14,49,28.40
2010,07,07,14,50,28.30
2010,07,07,14,51,28.20
2010,07,07,14,52,28.10
2010,07,07,14,53,28.10
2010,07,07,14,54,28.20
2010,07,07,14,55,28.20
2010,07,07,14,56,28.30
2010,07,07,14,57,28.50
2010,07,07,14,58,28.60
2010,07,07,14,59,28.60
2010,07,07,15,00,28.70
2010,07,07,15,01,28.70
2010,07,07,15,02,28.80
2010,07,07,15,03,28.90
2010,07,07,15,04,28.90
2010,07,07,15,05,28.90
2010,07,07,15,06,28.90
2010,07,07,15,07,28.90
2010,07,07,15,08,28.90
2010,07,07,15,09,28.90
2010,07,07,15,10,29.10
2010,07,07,15,11,29.10
2010,07,07,15,12,29.10
2010,07,07,15,13,29.10
2010,07,07,15,14,29.10
2010,07,07,15,15,29.10
2010,07,07,15,16,29.00
2010,07,07,15,17,28.90
2010,07,07,15,18,28.90
2010,07,07,15,19,29.00
2010,07,07,15,20,28.90
2010,07,07,15,21,28.90
2010,07,07,15,22,28.90
2010,07,07,15,23,28.80
2010,07,07,15,24,28.80
2010,07,07,15,25,28.70
2010,07,07,15,26,28.70
2010,07,07,15,27,28.70
2010,07,07,15,28,28.70
2010,07,07,15,29,28.80
2010,07,07,15,30,28.90
2010,07,07,15,31,28.90
2010,07,07,15,32,28.90
2010,07,07,15,33,28.90
2010,07,07,15,34,28.90
2010,07,07,15,35,28.80
2010,07,07,15,36,28.70
2010,07,07,15,37,28.70
2010,07,07,15,38,28.70
2010,07,07,15,39,28.70
2010,07,07,15,40,28.70
2010,07,07,15,41,28.80
2010,07,07,15,42,28.80
2010,07,07,15,43,28.80
2010,07,07,15,44,28.80
2010,07,07,15,45,28.90
2010,07,07,15,46,28.90
2010,07,07,15,47,28.90
2010,07,07,15,48,28.90
2010,07,07,15,49,28.90
2010,07,07,15,50,28.90
2010,07,07,15,51,29.00
2010,07,07,15,52,29.10
2010,07,07,15,53,29.10
2010,07,07,15,54,29.10
2010,07,07,15,55,29.10
2010,07,07,15,56,29.20
2010,07,07,15,57,29.20
2010,07,07,15,58,29.20
2010,07,07,15,59,29.20
2010,07,07,16,00,29.20
2010,07,07,16,01,29.10
2010,07,07,16,02,29.10
2010,07,07,16,03,29.00
2010,07,07,16,04,28.90
2010,07,07,16,05,28.90
2010,07,07,16,06,28.90
2010,07,07,16,07,28.90
2010,07,07,16,08,28.90
2010,07,07,16,09,28.90
2010,07,07,16,10,29.00
2010,07,07,16,11,29.10
2010,07,07,16,12,29.10
2010,07,07,16,13,29.00
2010,07,07,16,14,28.90
2010,07,07,16,15,28.90
2010,07,07,16,16,28.90
2010,07,07,16,17,28.90
2010,07,07,16,18,28.90
2010,07,07,16,19,28.90
2010,07,07,16,20,28.90
2010,07,07,16,21,28.90
2010,07,07,16,22,28.90
2010,07,07,16,23,28.90
2010,07,07,16,24,28.90
2010,07,07,16,25,29.10
2010,07,07,16,26,29.20
2010,07,07,16,27,29.20
2010,07,07,16,28,29.30
2010,07,07,16,29,29.30
2010,07,07,16,30,29.20
2010,07,07,16,31,29.20
2010,07,07,16,32,29.20
2010,07,07,16,33,29.20
2010,07,07,16,34,29.30
2010,07,07,16,35,29.40
2010,07,07,16,36,29.40
2010,07,07,16,37,29.40
2010,07,07,16,38,29.50
2010,07,07,16,39,29.50
2010,07,07,16,40,29.40
2010,07,07,16,41,29.30
2010,07,07,16,42,29.20
2010,07,07,16,43,29.20
2010,07,07,16,44,29.10
2010,07,07,16,45,29.10
2010,07,07,16,46,29.00
2010,07,07,16,47,28.90
2010,07,07,16,48,28.90
2010,07,07,16,49,28.90
2010,07,07,16,50,28.90
2010,07,07,16,51,29.00
2010,07,07,16,52,29.10
2010,07,07,16,53,29.10
2010,07,07,16,54,29.10
2010,07,07,16,55,29.10
2010,07,07,16,56,29.10
2010,07,07,16,57,29.10
2010,07,07,16,58,29.00
2010,07,07,16,59,28.90
2010,07,07,17,00,28.90
2010,07,07,17,01,28.90
2010,07,07,17,02,28.90
2010,07,07,17,03,28.90
2010,07,07,17,04,28.90
2010,07,07,17,05,28.90
2010,07,07,17,06,28.90
2010,07,07,17,07,28.90
2010,07,07,17,08,28.90
2010,07,07,17,09,29.00
2010,07,07,17,10,29.20
2010,07,07,17,11,29.30
2010,07,07,17,12,29.30
2010,07,07,17,13,29.30
2010,07,07,17,14,29.30
2010,07,07,17,15,29.30
2010,07,07,17,16,29.20
2010,07,07,17,17,29.20
2010,07,07,17,18,29.20
2010,07,07,17,19,29.10